Regional Weather Roundup
Issued by NWS

Home | Current Version | Previous Version | Text Only | Print | Product List | Glossary On
Versions: 1 2 3 4 5 6 7 8 9 10 11 12 13 14 15 16 17 18 19 20 21 22 23 24 25 26 27 28 29 30 31 32 33 34 35 36 37 38 39 40 41 42 43 44 45 46 47 48 49 50
000
ASUS43 KDTX 211901
RWRMI
MICHIGAN HOURLY REGIONAL WEATHER ROUNDUP
NATIONAL WEATHER SERVICE DETROIT/PONTIAC MI
300 PM EDT SUN SEP 21 2014

NOTE: "FAIR" INDICATES FEW OR NO CLOUDS BELOW 12,000 FEET WITH NO
SIGNIFICANT WEATHER AND/OR OBSTRUCTION TO VISIBILITY.

MIZ047>049-052>055-059>063-066>070-074>076-081>083-212000-
SOUTHEAST LOWER MICHIGAN

CITY           SKY/WX    TMP DP  RH WIND       PRES   REMARKS
ADRIAN         LGT RAIN  60  53  77 W15G29    29.76R
ALMA           CLOUDY    59  56  90 NW12      29.73R
ANN ARBOR      CLOUDY    60  55  83 W12       29.71S
BAD AXE        LGT RAIN  54  54 100 N15G25    29.67R
CARO           HVY RAIN  54  53  97 N13G18    29.67R
DETROIT CITY   CLOUDY    64  53  67 W7        29.68S
DETROIT        PTSUNNY   63  56  78 SW13      29.70S
FLINT          PTSUNNY   64  55  72 W17G23    29.68R
GROSSE ILE     CLOUDY    64  52  63 W20G25    29.69S
HILLSDALE      RAIN      59  57  94 W16G22    29.78R
HOWELL         RAIN      61  55  82 W13G20    29.69S

CITY           SKY/WX    TMP DP  RH WIND       PRES   REMARKS
JACKSON        LGT RAIN  57  54  89 W12G22    29.74R FOG
LAMBERTVILLE   CLOUDY    61  54  77 W14G24    29.75S HAZE
LANSING        LGT RAIN  58  53  84 W20G25    29.73R
LAPEER         RAIN      63  52  68 W10G18    29.66R
MASON          CLOUDY    59  56  90 W14G25    29.72R
MONROE         PTSUNNY   64  52  63 W17G24    29.71S
MT. CLEMENS    PTSUNNY   63  50  61 SW15G23   29.65R
PONTIAC        CLOUDY    60  54  80 W8        29.67F
PORT HOPE        N/A     55  54  96 VRB5      29.65R
PORT HURON     LGT RAIN  61  54  77 W6        29.65R
TRI CITIES     HVY RAIN  58  54  86 N15G26    29.72R VSB 3/4
TROY           PTSUNNY   65  53  65 SW9       29.69F
SAGINAW HB     HVY RAIN  55  55 100 N6        29.70R
$$
MIZ043>046-050>051-056>058-064>065-071>073-077>080-212000-
SOUTHWEST LOWER MICHIGAN

CITY           SKY/WX    TMP DP  RH WIND       PRES   REMARKS
BATTLE CREEK   CLOUDY    62  53  72 NW15G33   29.79R
BENTON HARBOR  CLOUDY    58  52  80 NW10G24   29.89R
BIG RAPIDS     LGT RAIN  54  52  93 N15G25    29.81R
COLDWATER      CLOUDY    61  57  86 NW20      29.79R
FREMONT        DRIZZLE   55  52  89 N21G28    29.83R
HOLLAND        CLOUDY    61  52  72 NW17G28   29.85R
GRAND RAPIDS   CLOUDY    61  55  81 NW16G30   29.80R
IONIA          CLOUDY    60  57  90 NW21G26   29.75R
KALAMAZOO      CLOUDY    62  53  72 NW25G33   29.82R
LUDINGTON      CLOUDY    55  51  89 N16G24    29.89R
MARSHALL       CLOUDY    60  53  77 W14G28    29.77R
MOUNT PLEASANT LGT RAIN  58  56  91 NW14G21   29.73R
MUSKEGON       CLOUDY    58  49  72 N22G33    29.86R
SOUTH HAVEN    CLOUDY    58  52  80 N21G31    29.88R
$$
MIZ016>042-212000-
NORTHERN LOWER MICHIGAN

CITY           SKY/WX    TMP DP  RH WIND       PRES   REMARKS
ALPENA         LGT RAIN  50  48  93 NW13      29.77R
BEAVER ISLAND  CLOUDY    50  44  77 NW14G23   29.88R
BELLAIRE       CLOUDY    53  49  85 NW10G16   29.85R
CADILLAC       LGT RAIN  50  49  97 NW12G18   29.82R
CHARLEVOIX     CLOUDY    52  46  82 N18G28    29.89R
FRANKFORT      LGT RAIN  54  48  80 N17G26    29.89R
GAYLORD        CLOUDY    50  47  89 VRB7      29.80R
GRAYLING       RAIN      50  49  95 N9G21     29.81R
HARBOR SPRINGS CLOUDY    54  47  76 NW8G18    29.83R
HOUGHTON LAKE  CLOUDY    51  47  86 N13G30    29.79R
MANISTEE       CLOUDY    54  46  76 N15G23    29.90R
OSCODA         CLOUDY    51  50  95 N10G23    29.72R
PELLSTON       CLOUDY    53  46  77 NW18      29.83R
ROGERS CITY    CLOUDY    51  49  92 NW9G20    29.79R
TRAVERSE CITY  CLOUDY    54  48  80 N16G26    29.85R
$$
MIZ007>008-015-212000-
EASTERN UPPER MICHIGAN

CITY           SKY/WX    TMP DP  RH WIND       PRES   REMARKS
KINROSS        CLOUDY    52  43  71 NW23G30   29.80S
MACKINAC ISLAN CLOUDY    50  45  81 NW12G18   29.82R
NEWBERRY       CLOUDY    46  37  72 N18G26    29.89R
S. S. MARIE    PTSUNNY   52  37  56 N12G21    29.82R
$$
MIZ004>006-011>014-085-212000-
CENTRAL UPPER MICHIGAN

CITY           SKY/WX    TMP DP  RH WIND       PRES   REMARKS
MANISTIQUE     CLOUDY    47  39  72 N18G32    29.91R
ESCANABA       CLOUDY    46  39  76 N15G25    29.96R
MENOMINEE      CLOUDY    55  41  58 N14G21    29.95R
SAWYER-GWINN   CLOUDY    43  37  81 NW16G28   29.99R
$$
MIZ001>003-009>011-084-212000-
WESTERN UPPER MICHIGAN

CITY           SKY/WX    TMP DP  RH WIND       PRES   REMARKS
IRON MOUNTAIN  CLOUDY    50  39  66 N16G30    29.99R
HOUGHTON       CLOUDY    48  36  63 N14G24    30.05R
COPPER HARBOR    N/A     46  36  68 NE13G24   30.04R
IRONWOOD       CLOUDY    48  39  71 NW12G17   30.08S
$$

ABBREVIATIONS USED IN REMARKS
   TC - TEMPERATURE IN CELSIUS
  WCI - WIND CHILL INDEX
   HX - HEAT INDEX
  VSB - VISIBILITY



USA.gov is the U.S. government's official web portal to all federal, state and local government web resources and services.